Weather in Bodrum

Turkey     37°02′04″N   27°25′48″E
temp.,
°C
wind,
m/s
gust,
m/s
humid.,
%
clouds,
%
prec.,
mm/h
press.,
hPa
HPBL,
m
16 april, fri
fri1600:00+14ese3683100 0.0 1017270
03:00+14e358382 0.0 1016200
06:00+13e35829 0.0 1015212
09:00+16ese35715 0.0 1017388
12:00+18se56665 0.0 1017411
15:00+18se466462 0.0 1016329
18:00+18se3464100 0.0 1016243
21:00+16ese3376100 0.0 101667
17 april, sat
sat1700:00+16ese3372100 0.0 101645
03:00+16e5768100 0.0 1014147
06:00+16e5768100 0.0 1013172
09:00+18ese91659100 0.1 1014397
12:00+19se122162100 0.0 1013547
15:00+20ese152156100 0.0 1012488
18:00+18se122064100 0.0 1012441
21:00+19ese131952100 0.0 1013400
18 april, sun
sun1800:00+19ese91852100 0.0 1012368
03:00+19ese81159100 0.1 1012216
06:00+18e6870100 0.2 1015165
09:00+19ese4660100 0.2 101687
12:00+21se6949100 0.0 1016240
15:00+20se61154100 0.0 1015246
18:00+20ese51054100 0.0 1014197
21:00+20e5847100 0.0 101483
19 april, mon
mon1900:00+19e4550100 0.0 101351
03:00+19ene2254100 0.0 101212
06:00+17wnw2368100 0.0 101038
09:00+19wnw2366100 0.0 1011160
12:00+20w5658100 0.0 1011497
15:00+18w886715 0.0 1011615
18:00+17w6968100 0.0 1011746
21:00+15w697378 0.0 1013864
20 april, tue
tue2000:00+15w797388 0.0 1014914
03:00+14w58744 0.0 1013698
06:00+13w34770 0.0 1013427
09:00+16w56610 0.0 10151077
12:00+17w45560 0.0 10161095
15:00+17w45540 0.0 1016951
18:00+17wnw34570 0.0 1016656
21:00+14nw22692 0.0 1017127